Home   Weather   Atascadero   Past weeks
Flag for USA

Past Weather in Atascadero, California, USA — Yesterday and Last 2 Weeks

Now
76 °F

Clear.


Feels Like: 78 °F
Forecast: 75 / 53 °F
Wind: 12 mph from Northwest

Location: Paso Robles Municipal Airport

Current Time: Jul 16, 2019 at 9:48:46 pm

Latest Report: Jul 16, 2019 at 8:53 pm


Visibility: 10 mi

Pressure: 29.86 "Hg

Humidity: 42%

Dew Point: 51 °F

Location of AtascaderoLocation

Past Weather in Atascadero — Graph

°F

Atascadero Temperature Yesterday

Maximum temperature yesterday: 100 °F (at 2:53 pm)
Minimum temperature yesterday: 57 °F (at 5:53 am)
Average temperature yesterday: 78 °F

High & Low Weather Summary for the Past Weeks

 TemperatureHumidityPressure
High104 °F (Jul 13, 4:53 pm)100% (Jul 10, 4:53 am)30.10 "Hg (Jul 10, 4:53 am)
Low50 °F (Jul 2, 5:53 am)8% (Jul 2, 1:53 pm)29.76 "Hg (Jul 12, 5:53 pm)
Average70 °F57%29.94 "Hg
* Reported Jul 1 7:53 pm — Jul 16 7:53 pm, Atascadero. Weather by CustomWeather, © 2019

Note: Actual official high and low records may vary slightly from our data, if they occured in-between our weather recording intervals... More about our weather records

Advertising

Atascadero Weather History for the Previous 24 Hours

Scroll right to see more
 ConditionsComfort  
Time TempWeatherWind HumidityBarometerVisibility
7:53 pm
Tue, Jul 16
81 °FSunny.22 mph34%29.83 "Hg10 mi
6:53 pm87 °FSunny.23 mph30%29.81 "Hg10 mi
5:53 pm92 °FSunny.26 mph25%29.80 "Hg10 mi
4:53 pm95 °FSunny.24 mph21%29.80 "Hg10 mi
3:53 pm95 °FSunny.23 mph19%29.82 "Hg10 mi
2:53 pm95 °FSunny.23 mph19%29.83 "Hg10 mi
1:53 pm93 °FSunny.18 mph22%29.85 "Hg10 mi
12:53 pm90 °FSunny.18 mph26%29.86 "Hg10 mi
11:53 am87 °FSunny.20 mph29%29.88 "Hg10 mi
10:53 am82 °FSunny.10 mph38%29.89 "Hg10 mi
9:53 am73 °FSunny.6 mph53%29.90 "Hg10 mi
8:53 am68 °FSunny.8 mph63%29.91 "Hg10 mi
7:53 am62 °FSunny.No wind73%29.91 "Hg10 mi
6:53 am57 °FSunny.No wind81%29.91 "Hg10 mi
5:53 am55 °FClear.No wind87%29.91 "Hg10 mi
4:53 am58 °FClear.N/A87%29.90 "Hg10 mi
3:53 am60 °FClear.8 mph80%29.89 "Hg10 mi
2:53 am61 °FClear.12 mph78%29.90 "Hg10 mi
1:53 am64 °FClear.12 mph70%29.91 "Hg10 mi
12:53 am66 °FClear.10 mph65%29.91 "Hg10 mi
11:53 pm
Mon, Jul 15
67 °FClear.16 mph66%29.91 "Hg10 mi
10:53 pm70 °FClear.21 mph57%29.90 "Hg10 mi
9:53 pm73 °FClear.17 mph50%29.90 "Hg10 mi
Weather by CustomWeather, © 2019

See weather overview